Vertical_Velocity
8 -6 -1 -2 -3 -4 2 -1 0 1 -0 1 -1 -3 0 -1 1 1 -2 -2 0 0 2 -8 1 0 -2 -3 -1 -1 -1 -2 -2 -1 -3 1 0 2 1 2 1 1 -2
-3 2 -8 -5 1 -1 -3 0 2 3 -1 0 -0 -2 -2 -2 1 3 -4 -0 -1 -3 0 -4 -3 3 -1 -5 -4 -1 -1 -0 0 -5 -0 4 -2 -1 0 -1 -2 0 2
-5 -9 2 -2 -1 1 -4 -1 -1 -1 2 0 0 -0 -2 -1 -0 2 -1 -1 -1 -1 2 -1 -5 1 2 -4 -3 -6 -0 2 -0 -1 -4 1 -1 -1 -2 -2 -2 3 0
11 -11 -2 0 0 -2 -1 -2 -1 -3 3 0 3 -0 -0 -1 -1 2 -0 -1 1 1 -1 3 -5 -3 4 4 -7 -4 1 10 14 19 -4 -2 -0 -1 -2 -2 -1 -1 -1
-11 8 -4 -5 -2 1 -2 -2 -1 -1 1 0 3 1 -1 -1 -0 -1 -1 3 -2 -0 -4 0 1 -6 -2 6 2 -6 -4 4 7 7 -1 -4 3 -1 -2 -0 -2 -1 -2
-8 6 -3 -3 -2 -7 1 -4 -4 -5 2 -2 -2 1 -1 -1 -0 -1 -2 2 -4 0 -3 -1 0 0 -7 1 5 -0 2 1 -3 -2 0 -1 0 -0 0 -0 -2 -3 -3
-2 6 2 1 2 -6 -3 -0 2 -3 -4 0 -2 0 -0 -3 -4 0 3 -4 -1 -3 -2 1 -1 2 -4 -4 -1 1 -1 -7 -1 -9 -5 0 -1 2 0 -2 -1 -1 -2
-2 -2 1 -5 3 5 -1 -2 2 1 0 -4 0 1 -0 -2 -2 -4 2 -4 1 -3 -2 -1 -4 3 -2 -2 -3 -3 -6 9 27 2 -5 -3 -0 1 1 -1 -1 -2 1
-4 -3 2 0 3 -4 -1 3 2 1 1 -2 -1 -0 2 -1 -2 -4 0 -2 2 -3 -1 -3 -2 2 -1 -3 -1 1 -0 -1 5 -4 -7 -5 -1 -2 3 3 -2 -1 -1
-2 3 -0 -2 3 -2 -5 -2 1 1 0 1 1 0 1 -1 -1 -2 -5 -0 0 -4 -0 -3 -1 1 5 -3 -4 -2 -1 16 5 -1 -7 -4 -2 -1 -1 1 4 1 -1
3 -0 -1 -2 -3 4 -3 -0 -2 5 -2 0 2 -1 -2 -1 0 -2 1 -3 -3 -3 2 -2 0 -3 2 2 -5 -1 4 7 1 -3 0 -5 0 -3 -5 -1 0 0 0
-0 -0 -1 -3 -2 -2 -1 -3 0 0 0 -3 -2 -1 -2 -2 0 -2 -0 -0 -3 -3 1 -1 -1 -2 -3 3 -1 -2 -2 17 -4 -4 -3 -4 -0 0 -2 -3 1 1 -0
-1 -0 2 1 0 -0 -4 -2 -4 4 2 -4 -0 -3 21 -6 -1 -2 -0 -4 0 -3 -2 3 -1 -2 -11 -1 1 4 -9 -3 -7 -7 -3 -1 -2 -3 -0 1 -1 -1 -1
-4 5 2 1 0 1 1 -2 1 -2 -4 -4 -0 -5 7 -1 -2 -2 0 -5 -3 -4 -2 -2 1 -4 4 22 8 -5 3 30 2 -5 -2 -2 -2 -4 -0 -1 -1 -1 -4
17 7 3 0 -0 1 -2 -2 0 -5 -1 -2 -9 11 -2 6 -5 -0 -3 -4 -4 -6 -3 -4 9 -0 -5 -1 -2 -7 3 10 2 -5 -3 -3 -2 1 -4 -4 -1 -1 -1
3 9 -1 37 -2 6 6 4 3 3 -3 -2 -2 5 -6 13 -4 -2 1 -1 0 -6 2 2 -1 -6 -7 -2 -2 -0 -6 -4 3 -5 -2 -2 -2 -3 0 -1 -2 -1 0
6 4 -10 -7 35 10 3 0 -3 -3 4 -2 -5 8 -7 10 -5 28 5 1 -3 1 5 6 -2 -3 4 -0 -2 -2 -1 0 1 6 -3 -2 -1 -2 -2 -1 -1 -2 -1
1 2 -3 4 8 14 19 4 -2 -5 -7 2 1 0 0 -2 -4 -0 -0 -2 0 3 -0 -0 -9 3 -1 -2 1 -6 -0 -5 5 -6 7 -1 -2 -2 -0 -3 -1 -1 -1
2 4 3 -2 9 -1 -6 43 17 10 -0 0 -3 -2 1 -5 -7 -7 -1 -1 -5 3 -5 6 -10 0 4 -5 6 -3 -3 -0 -1 -7 -7 4 4 -5 -1 -3 -1 -2 -0
7 5 2 -0 -4 5 11 -8 55 15 5 -3 8 2 -1 -1 -3 -4 -5 3 -4 3 -6 -0 -6 -3 10 -5 -0 -3 -4 5 9 -6 0 -3 -6 1 3 -3 -2 -3 -3
1 4 1 -3 1 0 1 13 9 61 0 -1 5 4 -5 -3 -2 -1 -8 10 -2 -1 -3 -2 -1 5 -5 6 -4 8 -3 -6 -3 0 -2 -2 -5 -2 -2 -5 -3 -4 0
1 0 0 1 2 1 5 -4 -1 3 -3 9 1 2 0 -4 -5 -4 -4 5 -1 -1 -1 1 0 -4 -0 5 -4 -2 -2 1 -6 1 -0 -3 -3 0 -0 -2 -2 -4 -2
-3 0 -0 -1 -1 -0 4 5 2 -4 27 -6 8 -8 3 8 -4 -6 -2 -7 1 -2 0 -0 1 -2 -0 1 -2 -11 3 3 11 -2 0 -1 -2 -1 -1 0 -0 -1 -1
-1 -2 0 2 -5 3 -3 6 6 -1 24 -6 -6 -1 1 6 -6 1 -7 -3 -2 -1 -5 2 -1 -1 2 0 3 -10 4 -0 2 4 -2 -2 1 -3 -0 -5 -2 -2 -3
-3 -2 -1 -0 2 -8 1 1 2 7 -6 34 -4 2 -4 4 2 12 1 -4 1 -1 5 -6 -3 -5 -2 2 2 -1 -4 4 3 1 -2 -1 0 -0 -0 1 1 0 -2
-1 -4 -3 1 -0 3 -8 2 -2 3 1 -5 11 2 5 10 4 -2 -7 -1 1 1 0 8 -1 -4 1 -1 -2 1 -3 -6 -6 -3 -0 -3 0 -8 -1 -1 -3 -3 1
Height
1523 1528 1533 1536 1540 1543 1546 1548 1551 1553 1554 1555 1556 1557 1559 1560 1560 1559 1560 1562 1563 1563 1563 1564 1565 1564 1564 1566 1567 1567 1568 1567 1568 1568 1571 1573 1573 1574 1575 1575 1575 1575 1575
1523 1528 1534 1537 1541 1544 1548 1551 1553 1555 1556 1557 1558 1559 1562 1563 1562 1562 1562 1564 1565 1564 1565 1564 1567 1567 1567 1568 1571 1572 1572 1572 1572 1571 1574 1575 1576 1577 1577 1577 1577 1577 1577
1521 1529 1535 1539 1542 1546 1549 1553 1556 1557 1558 1559 1561 1561 1564 1565 1565 1564 1564 1565 1567 1567 1568 1568 1569 1570 1570 1571 1574 1575 1577 1577 1577 1578 1578 1578 1579 1579 1580 1580 1580 1580 1579
1522 1527 1535 1539 1543 1547 1550 1554 1557 1558 1561 1561 1564 1564 1566 1567 1567 1567 1567 1567 1570 1570 1572 1571 1571 1572 1575 1575 1577 1579 1580 1582 1584 1584 1582 1581 1582 1582 1582 1581 1582 1582 1582
1526 1529 1536 1541 1544 1548 1552 1556 1558 1560 1562 1563 1566 1566 1567 1569 1568 1569 1569 1570 1571 1572 1573 1574 1573 1575 1579 1581 1580 1581 1583 1586 1587 1586 1584 1584 1584 1584 1584 1583 1583 1584 1585
1526 1532 1536 1542 1544 1549 1552 1556 1558 1562 1563 1565 1567 1567 1568 1570 1570 1571 1571 1572 1573 1574 1574 1575 1575 1577 1580 1583 1584 1585 1587 1588 1588 1588 1588 1587 1587 1586 1585 1585 1585 1586 1587
1526 1532 1535 1542 1544 1549 1553 1556 1559 1562 1564 1566 1569 1569 1569 1570 1572 1573 1573 1574 1574 1575 1575 1576 1577 1579 1581 1585 1586 1587 1589 1591 1591 1590 1590 1589 1589 1589 1587 1587 1587 1588 1588
1527 1533 1536 1542 1545 1548 1552 1557 1559 1562 1564 1567 1569 1570 1570 1571 1573 1574 1575 1574 1574 1575 1577 1578 1579 1581 1583 1585 1588 1590 1591 1592 1595 1591 1591 1591 1591 1591 1590 1589 1590 1591 1592
1528 1534 1537 1543 1546 1548 1553 1557 1560 1563 1564 1567 1569 1571 1571 1572 1573 1575 1577 1576 1576 1577 1578 1579 1581 1583 1585 1587 1590 1592 1593 1594 1595 1593 1592 1593 1594 1594 1593 1592 1593 1594 1594
1527 1534 1539 1544 1546 1548 1553 1557 1561 1563 1565 1567 1569 1571 1572 1573 1574 1575 1577 1577 1577 1579 1579 1581 1582 1584 1587 1589 1592 1594 1596 1597 1595 1593 1593 1595 1596 1596 1596 1596 1595 1595 1595
1529 1534 1539 1543 1546 1549 1552 1556 1560 1562 1565 1567 1569 1571 1573 1574 1575 1576 1577 1578 1579 1580 1580 1582 1585 1586 1589 1591 1594 1596 1597 1597 1597 1595 1596 1595 1596 1597 1597 1597 1597 1596 1596
1530 1534 1538 1541 1545 1548 1551 1555 1558 1561 1563 1566 1569 1572 1574 1576 1575 1577 1578 1580 1580 1582 1583 1584 1586 1589 1591 1593 1595 1598 1598 1597 1596 1596 1596 1596 1597 1597 1598 1598 1598 1598 1597
1533 1536 1539 1542 1544 1547 1549 1552 1556 1559 1561 1564 1569 1572 1576 1575 1577 1578 1579 1580 1581 1583 1584 1586 1588 1590 1592 1595 1595 1597 1599 1601 1595 1595 1597 1597 1597 1598 1599 1599 1598 1598 1598
1535 1539 1542 1543 1544 1547 1550 1552 1554 1556 1559 1562 1568 1570 1573 1576 1576 1578 1578 1579 1582 1583 1586 1588 1589 1590 1594 1598 1597 1598 1600 1602 1597 1597 1597 1597 1598 1598 1599 1600 1599 1598 1598
1538 1542 1543 1544 1545 1546 1549 1551 1552 1554 1557 1560 1566 1569 1572 1574 1574 1577 1577 1579 1582 1584 1587 1588 1590 1593 1594 1596 1595 1597 1599 1601 1598 1596 1597 1597 1598 1598 1598 1599 1599 1599 1599
1532 1535 1539 1544 1545 1545 1546 1548 1550 1552 1557 1561 1564 1567 1570 1574 1574 1577 1578 1580 1583 1585 1588 1590 1591 1592 1594 1595 1595 1597 1598 1599 1600 1597 1597 1598 1597 1598 1598 1599 1600 1600 1600
1528 1530 1537 1539 1542 1543 1546 1545 1548 1553 1555 1558 1562 1564 1567 1571 1574 1577 1578 1580 1583 1585 1588 1591 1591 1593 1594 1595 1595 1595 1597 1599 1600 1600 1597 1598 1599 1598 1599 1599 1599 1599 1599
1528 1529 1529 1535 1535 1537 1544 1544 1544 1549 1553 1558 1559 1561 1564 1567 1571 1574 1576 1579 1582 1584 1587 1588 1591 1592 1593 1595 1595 1595 1597 1597 1598 1599 1600 1598 1598 1599 1599 1599 1599 1599 1599
1527 1527 1531 1531 1533 1534 1538 1536 1541 1542 1546 1553 1557 1558 1560 1564 1567 1572 1575 1577 1579 1582 1584 1587 1589 1591 1592 1594 1595 1595 1597 1597 1597 1597 1599 1600 1598 1596 1597 1598 1598 1599 1598
1526 1526 1526 1529 1531 1533 1533 1529 1530 1542 1547 1553 1556 1554 1557 1560 1563 1568 1573 1575 1577 1579 1582 1585 1586 1589 1591 1592 1594 1594 1595 1597 1596 1596 1597 1597 1598 1598 1596 1594 1595 1596 1596
1525 1524 1524 1526 1525 1528 1529 1529 1520 1519 1539 1551 1554 1552 1553 1558 1562 1565 1569 1573 1573 1577 1579 1580 1584 1587 1588 1590 1593 1593 1594 1593 1593 1593 1593 1593 1594 1595 1594 1593 1592 1593 1593
1527 1524 1524 1524 1525 1527 1528 1530 1533 1536 1534 1546 1550 1551 1551 1553 1558 1562 1566 1570 1571 1575 1577 1578 1580 1582 1584 1586 1588 1591 1591 1591 1589 1589 1589 1589 1590 1591 1591 1590 1590 1589 1590
1528 1526 1523 1522 1523 1525 1526 1529 1532 1537 1531 1540 1538 1546 1552 1551 1553 1558 1562 1565 1569 1571 1574 1576 1577 1579 1581 1583 1584 1586 1588 1586 1585 1585 1585 1585 1586 1586 1587 1587 1586 1586 1587
1531 1527 1524 1523 1521 1522 1523 1524 1527 1531 1532 1532 1537 1543 1547 1550 1549 1553 1556 1561 1564 1566 1570 1573 1574 1576 1578 1579 1581 1582 1582 1583 1583 1583 1582 1582 1583 1583 1582 1582 1583 1583 1582
1531 1528 1525 1522 1521 1518 1519 1520 1521 1523 1528 1528 1534 1539 1541 1543 1543 1547 1551 1555 1559 1561 1564 1566 1569 1571 1574 1576 1576 1578 1579 1581 1581 1580 1580 1580 1580 1580 1579 1578 1579 1579 1578
1531 1527 1525 1523 1519 1519 1517 1515 1516 1518 1521 1525 1529 1534 1538 1538 1537 1541 1546 1551 1555 1558 1560 1562 1563 1566 1568 1571 1573 1574 1574 1575 1577 1578 1577 1576 1576 1577 1576 1575 1574 1575 1574